Weather History for Silver City, NM

Change the Weather History Date:

Friday, February 15, 2013

  Actual Average (KDMN) Record (KDMN)
Temperature  
Mean Temperature 44 °F 47 °F  
Max Temperature 57 °F 63 °F 82 °F (2014)
Min Temperature 28 °F 32 °F 10 °F (1951)
Degree Days  
Heating Degree Days 22    
Moisture  
Dew Point 12 °F    
Average Humidity 34    
Maximum Humidity 51    
Minimum Humidity 10    
Precipitation  
Precipitation 0.00 in 0.02 in 0.19 in (2008)
Month to date precipitation 0.33  
Year to date precipitation 0.94  
Sea Level Pressure  
Sea Level Pressure 30.28 in    
Wind  
Wind Speed 8 mph (NW)    
Max Wind Speed 16 mph    
Max Gust Speed 26 mph    
Visibility 10 miles    
Events      
T = Trace of Precipitation, MM = Missing Value Source: NWS Daily Summary

Daily Weather History Graph

Daily Weather History Graph

Search for Another Location

Airport:

Trip Planner

Search our weather history database for the weather conditions in past years. The results will help you decide how hot, cold, wet, or windy it might be!

Date:

Astronomy

Feb. 15, 2013 Rise Set
Actual Time 6:55 AM MST 5:58 PM MST
Civil Twilight 6:30 AM MST 6:23 PM MST
Nautical Twilight 6:01 AM MST 6:52 PM MST
Astronomical Twilight 5:32 AM MST 7:21 PM MST
Moon 9:55 AM MST (2/15) 11:39 PM MST (2/15)
Length of Visible Light 11h 53m
Length of Day
11h 03m
Waxing Crescent, 31% of the Moon is Illuminated
Feb 15
Waxing Crescent
Feb 17
First Quarter
Feb 25
Full
Mar 4
Last Quarter
Mar 11
New

Hourly Weather History & Observations

Time (MST) Temp. Windchill Dew Point Humidity Pressure Visibility Wind Dir Wind Speed Gust Speed Precip Events Conditions
12:15 AM 35.6 °F 29.9 °F 15.8 °F 44% 30.19 in 10.0 mi North 6.9 mph - N/A   Clear
12:35 AM 35.6 °F - 15.8 °F 44% 30.20 in 10.0 mi Calm Calm - N/A   Clear
12:55 AM 35.6 °F 28.0 °F 15.8 °F 44% 30.20 in 10.0 mi WNW 10.4 mph - N/A   Clear
1:15 AM 35.6 °F 28.0 °F 15.8 °F 44% 30.21 in 10.0 mi NW 10.4 mph - N/A   Clear
1:35 AM 35.6 °F 28.0 °F 15.8 °F 44% 30.21 in 10.0 mi NNW 10.4 mph - N/A   Clear
1:55 AM 35.6 °F 28.0 °F 15.8 °F 44% 30.21 in 10.0 mi NNW 10.4 mph - N/A   Clear
2:15 AM 35.6 °F 30.7 °F 15.8 °F 44% 30.21 in 10.0 mi NNW 5.8 mph - N/A   Clear
2:35 AM 35.6 °F 32.8 °F 15.8 °F 44% 30.21 in 10.0 mi NW 3.5 mph - N/A   Clear
2:55 AM 35.6 °F 32.8 °F 15.8 °F 44% 30.21 in 10.0 mi WNW 3.5 mph - N/A   Clear
3:15 AM 35.6 °F 29.9 °F 15.8 °F 44% 30.20 in 10.0 mi North 6.9 mph - N/A   Clear
3:35 AM 32.0 °F 23.0 °F 15.8 °F 51% 30.20 in 10.0 mi NW 11.5 mph - N/A   Clear
3:55 AM 35.6 °F 27.5 °F 15.8 °F 44% 30.20 in 10.0 mi NNW 11.5 mph - N/A   Clear
4:15 AM 33.8 °F 29.6 °F 15.8 °F 48% 30.21 in 10.0 mi North 4.6 mph - N/A   Clear
4:35 AM 33.8 °F - 15.8 °F 48% 30.21 in 10.0 mi Calm Calm - N/A   Clear
4:55 AM 35.6 °F 32.8 °F 14.0 °F 41% 30.23 in 10.0 mi NNW 3.5 mph - N/A   Clear
5:15 AM 35.6 °F 29.2 °F 14.0 °F 41% 30.23 in 10.0 mi NW 8.1 mph - N/A   Clear
5:35 AM 33.8 °F 24.8 °F 14.0 °F 44% 30.23 in 10.0 mi NW 12.7 mph - N/A   Clear
5:55 AM 32.0 °F 22.1 °F 14.0 °F 48% 30.23 in 10.0 mi NW 13.8 mph - N/A   Clear
6:15 AM 32.0 °F 22.5 °F 15.8 °F 51% 30.24 in 10.0 mi NW 12.7 mph - N/A   Clear
6:35 AM 32.0 °F 22.1 °F 15.8 °F 51% 30.25 in 10.0 mi NW 13.8 mph - N/A   Clear
6:55 AM 32.0 °F 23.0 °F 15.8 °F 51% 30.26 in 10.0 mi NW 11.5 mph - N/A   Clear
7:15 AM 32.0 °F 25.6 °F 15.8 °F 51% 30.26 in 10.0 mi NW 6.9 mph - N/A   Clear
7:55 AM 32.0 °F - 14.0 °F 48% 30.29 in 10.0 mi Calm Calm - N/A   Clear
8:15 AM 35.6 °F 30.7 °F 14.0 °F 41% 30.30 in 10.0 mi WNW 5.8 mph - N/A   Clear
8:35 AM 37.4 °F 30.8 °F 14.0 °F 38% 30.30 in 10.0 mi West 9.2 mph - N/A   Clear
8:55 AM 39.2 °F 32.5 °F 17.6 °F 42% 30.31 in 10.0 mi WNW 10.4 mph - N/A   Clear
9:15 AM 41.0 °F 37.1 °F 15.8 °F 36% 30.32 in 10.0 mi West 5.8 mph - N/A   Clear
9:35 AM 42.8 °F - 14.0 °F 31% 30.32 in 10.0 mi Calm Calm - N/A   Clear
9:55 AM 44.6 °F 43.1 °F 10.4 °F 25% 30.33 in 10.0 mi North 3.5 mph - N/A   Clear
10:15 AM 46.4 °F 44.3 °F 10.4 °F 23% 30.33 in 10.0 mi NNW 4.6 mph - N/A   Clear
10:35 AM 48.2 °F - 6.8 °F 19% 30.33 in 10.0 mi SSW 4.6 mph - N/A   Clear
10:55 AM 48.2 °F - 5.0 °F 17% 30.33 in 10.0 mi Calm Calm - N/A   Clear
11:15 AM 48.2 °F - 14.0 °F 25% 30.32 in 10.0 mi South 9.2 mph - N/A   Clear
11:35 AM 50.0 °F - 14.0 °F 24% 30.31 in 10.0 mi South 10.4 mph - N/A   Clear
11:55 AM 50.0 °F - 14.0 °F 24% 30.31 in 10.0 mi South 9.2 mph - N/A   Clear
12:15 PM 50.0 °F - 14.0 °F 24% 30.30 in 10.0 mi SSW 8.1 mph - N/A   Clear
12:35 PM 50.0 °F - 12.2 °F 22% 30.29 in 10.0 mi South 9.2 mph 16.1 mph N/A   Clear
12:55 PM 50.0 °F - 12.2 °F 22% 30.28 in 10.0 mi SSW 8.1 mph - N/A   Clear
1:15 PM 53.6 °F - 10.4 °F 18% 30.26 in 10.0 mi SW 9.2 mph - N/A   Clear
1:35 PM 53.6 °F - 8.6 °F 16% 30.25 in 10.0 mi WNW 6.9 mph 16.1 mph N/A   Clear
1:55 PM 57.2 °F - 10.4 °F 16% 30.24 in 10.0 mi ESE 16.1 mph 24.2 mph N/A   Clear
2:15 PM 55.4 °F - 8.6 °F 15% 30.25 in 10.0 mi East 4.6 mph - N/A   Clear
2:35 PM 57.2 °F - 1.4 °F 10% 30.26 in 10.0 mi NNE 11.5 mph 23.0 mph N/A   Clear
2:55 PM 55.4 °F - 8.6 °F 15% 30.25 in 10.0 mi SSW 8.1 mph - N/A   Clear
3:15 PM 55.4 °F - 12.2 °F 18% 30.25 in 10.0 mi South 16.1 mph 20.7 mph N/A   Clear
3:35 PM 55.4 °F - 10.4 °F 17% 30.25 in 10.0 mi SSW 13.8 mph 20.7 mph N/A   Clear
3:55 PM 55.4 °F - 14.0 °F 20% 30.26 in 10.0 mi SSW 12.7 mph 26.5 mph N/A   Clear
4:15 PM 55.4 °F - 14.0 °F 20% 30.27 in 10.0 mi South 13.8 mph - N/A   Clear
4:35 PM 53.6 °F - 14.0 °F 21% 30.27 in 10.0 mi South 13.8 mph - N/A   Clear
4:55 PM 51.8 °F - 14.0 °F 22% 30.27 in 10.0 mi South 11.5 mph - N/A   Clear
5:15 PM 51.8 °F - 14.0 °F 22% 30.28 in 10.0 mi South 11.5 mph - N/A   Clear
5:35 PM 50.0 °F - 12.2 °F 22% 30.29 in 10.0 mi SSE 11.5 mph - N/A   Clear
5:55 PM 48.2 °F - 12.2 °F 24% 30.28 in 10.0 mi South 8.1 mph - N/A   Clear
6:15 PM 44.6 °F 40.7 °F 10.4 °F 25% 30.29 in 10.0 mi SSE 6.9 mph - N/A   Clear
6:35 PM 44.6 °F 40.7 °F 10.4 °F 25% 30.30 in 10.0 mi SSE 6.9 mph - N/A   Clear
6:55 PM 42.8 °F 41.1 °F 10.4 °F 27% 30.31 in 10.0 mi SE 3.5 mph - N/A   Clear
7:15 PM 41.0 °F - 8.6 °F 26% 30.32 in 10.0 mi Calm Calm - N/A   Clear
7:35 PM 33.8 °F - 8.6 °F 35% 30.32 in 10.0 mi Calm Calm - N/A   Clear
7:55 PM 32.0 °F - 6.8 °F 35% 30.33 in 10.0 mi Calm Calm - N/A   Clear
8:15 PM 32.0 °F 25.6 °F 8.6 °F 38% 30.33 in 10.0 mi North 6.9 mph - N/A   Clear
8:35 PM 32.0 °F 23.6 °F 8.6 °F 38% 30.34 in 10.0 mi North 10.4 mph - N/A   Clear
8:55 PM 32.0 °F 26.4 °F 10.4 °F 41% 30.35 in 10.0 mi North 5.8 mph - N/A   Clear
9:15 PM 32.0 °F 23.6 °F 8.6 °F 38% 30.35 in 10.0 mi North 10.4 mph - N/A   Clear
9:35 PM 32.0 °F 23.6 °F 10.4 °F 41% 30.35 in 10.0 mi North 10.4 mph - N/A   Clear
9:55 PM 32.0 °F 23.0 °F 10.4 °F 41% 30.36 in 10.0 mi North 11.5 mph - N/A   Clear
10:15 PM 32.0 °F 23.0 °F 10.4 °F 41% 30.36 in 10.0 mi North 11.5 mph - N/A   Clear
10:35 PM 32.0 °F 23.6 °F 10.4 °F 41% 30.37 in 10.0 mi North 10.4 mph - N/A   Clear
10:55 PM 32.0 °F 23.6 °F 10.4 °F 41% 30.38 in 10.0 mi North 10.4 mph - N/A   Clear
11:15 PM 32.0 °F 24.8 °F 10.4 °F 41% 30.38 in 10.0 mi North 8.1 mph - N/A   Clear
11:35 PM 30.2 °F 21.9 °F 10.4 °F 44% 30.39 in 10.0 mi North 9.2 mph - N/A   Clear
11:55 PM 28.4 °F 20.4 °F 8.6 °F 43% 30.39 in 10.0 mi NNE 8.1 mph - N/A   Clear